 day,  time,  air_temp(C),  RH(%),  ground_temp10cm(C),  ground_temp20cm(C),  ground_temp40cm(C),  precipitation(mm/h),  Solar_Radiation(MJ/m2h),  lack, 
 04/02/01, 01:00,  -6.8,  46,   0.4,   1.0,   2.3,   0.0,  0.00, 
 04/02/01, 02:00,  -6.6,  44,   0.4,   1.0,   2.3,   0.0,  0.00, 
 04/02/01, 03:00,  -7.3,  52,   0.4,   1.0,   2.3,   0.0,  0.00, 
 04/02/01, 04:00,  -8.8,  60,   0.4,   1.0,   2.3,   0.0,  0.00, 
 04/02/01, 05:00,  -8.1,  59,   0.4,   1.0,   2.3,   0.0,  0.00, 
 04/02/01, 06:00,  -5.9,  42,   0.4,   1.0,   2.3,   0.0,  0.00, 
 04/02/01, 07:00, -10.2,  70,   0.4,   1.0,   2.3,   0.0,  0.00, 
 04/02/01, 08:00,  -6.8,  53,   0.3,   1.0,   2.3,   0.0,  0.19, 
 04/02/01, 09:00,  -4.4,  52,   0.4,   1.0,   2.3,   0.0,  0.97, 
 04/02/01, 10:00,  -2.6,  48,   0.4,   1.0,   2.3,   0.0,  1.56, 
 04/02/01, 11:00,  -0.7,  45,   0.4,   1.0,   2.3,   0.0,  1.98, 
 04/02/01, 12:00,   1.3,  44,   0.4,   1.0,   2.3,   0.0,  2.16, 
 04/02/01, 13:00,   2.7,  42,   0.4,   1.0,   2.3,   0.0,  1.77, 
 04/02/01, 14:00,   1.9,  47,   0.4,   1.0,   2.3,   0.0,  1.35, 
 04/02/01, 15:00,   1.8,  44,   0.4,   1.0,   2.3,   0.0,  0.87, 
 04/02/01, 16:00,   1.9,  40,   0.4,   1.0,   2.3,   0.0,  0.70, 
 04/02/01, 17:00,   0.0,  53,   0.4,   1.0,   2.3,   0.0,  0.23, 
 04/02/01, 18:00,  -1.6,  54,   0.4,   1.0,   2.3,   0.0,  0.00, 
 04/02/01, 19:00,  -0.6,  39,   0.4,   1.0,   2.3,   0.0,  0.00, 
 04/02/01, 20:00,  -0.3,  33,   0.4,   1.0,   2.3,   0.0,  0.00, 
 04/02/01, 21:00,  -1.6,  42,   0.4,   1.0,   2.3,   0.0,  0.00, 
 04/02/01, 22:00,  -1.5,  38,   0.4,   1.0,   2.3,   0.0,  0.00, 
 04/02/01, 23:00,  -0.5,  31,   0.4,   1.0,   2.3,   0.0,  0.00, 
 04/02/02, 00:00,  -1.1,  43,   0.4,   1.0,   2.3,   0.0,  0.00, 
 04/02/02, 01:00,   0.3,  56,   0.3,   1.0,   2.3,   0.0,  0.00, 
 04/02/02, 02:00,   1.0,  70,   0.3,   1.0,   2.3,   0.0,  0.00, 
 04/02/02, 03:00,   1.3,  77,   0.3,   1.0,   2.3,   0.0,  0.00, 
 04/02/02, 04:00,   0.7,  80,   0.3,   1.0,   2.3,   0.0,  0.00, 
 04/02/02, 05:00,   0.1,  92,   0.3,   1.0,   2.3,   0.0,  0.00, 
 04/02/02, 06:00,   1.2,  91,   0.3,   1.0,   2.3,   0.0,  0.00, 
 04/02/02, 07:00,   1.3,  92,   0.3,   1.0,   2.3,   0.0,  0.00, 
 04/02/02, 08:00,   1.4,  97,   0.3,   1.0,   2.3,   0.0,  0.05, 
 04/02/02, 09:00,   1.4,  97,   0.3,   1.0,   2.3,   0.5,  0.13, 
 04/02/02, 10:00,   2.0,  98,   0.3,   1.0,   2.3,   1.0,  0.25, 
 04/02/02, 11:00,   1.8,  99,   0.3,   1.0,   2.3,   2.0,  0.21, 
 04/02/02, 12:00,   2.6,  98,   0.3,   1.0,   2.3,   1.0,  0.43, 
 04/02/02, 13:00,   3.1,  93,   0.3,   1.0,   2.3,   0.5,  0.34, 
 04/02/02, 14:00,   3.6,  92,   0.3,   1.0,   2.3,   1.0,  0.32, 
 04/02/02, 15:00,   3.2,  99,   0.3,   1.0,   2.3,   2.0,  0.22, 
 04/02/02, 16:00,   3.0,  99,   0.3,   1.0,   2.3,   2.5,  0.05, 
 04/02/02, 17:00,   3.2,  99,   0.3,   1.0,   2.3,   0.5,  0.00, 
 04/02/02, 18:00,   2.9,  99,   0.3,   1.0,   2.3,   0.0,  0.00, 
 04/02/02, 19:00,   0.3,  99,   0.3,   1.0,   2.3,   1.5,  0.00, 
 04/02/02, 20:00,   0.0,  98,   0.3,   1.0,   2.3,   1.5,  0.00, 
 04/02/02, 21:00,  -0.1,  96,   0.3,   1.0,   2.3,   0.5,  0.00, 
 04/02/02, 22:00,  -0.5,  99,   0.3,   1.0,   2.3,   0.0,  0.00, 
 04/02/02, 23:00,  -1.1,  99,   0.3,   1.0,   2.2,   0.0,  0.00, 
 04/02/03, 00:00,  -1.1,  97,   0.3,   1.0,   2.2,   0.0,  0.00, 
 04/02/03, 01:00,  -1.5,  91,   0.3,   1.0,   2.2,   0.0,  0.00, 
 04/02/03, 02:00,  -1.8,  96,   0.3,   1.0,   2.2,   0.0,  0.00, 
 04/02/03, 03:00,  -1.8,  90,   0.3,   1.0,   2.2,   0.0,  0.00, 
 04/02/03, 04:00,  -2.4,  92,   0.3,   1.0,   2.2,   0.0,  0.00, 
 04/02/03, 05:00,  -2.2,  92,   0.3,   1.0,   2.2,   0.0,  0.00, 
 04/02/03, 06:00,  -2.3,  93,   0.3,   0.9,   2.1,   0.0,  0.00, 
 04/02/03, 07:00,  -2.6,  94,   0.3,   1.0,   2.2,   0.0,  0.00, 
 04/02/03, 08:00,  -2.6,  96,   0.3,   1.0,   2.2,   0.0,  0.07, 
 04/02/03, 09:00,  -2.4,  99,   0.3,   1.0,   2.2,   0.0,  0.26, 
 04/02/03, 10:00,  -2.3,  93,   0.3,   0.9,   2.1,   0.0,  0.51, 
 04/02/03, 11:00,  -1.7,  91,   0.3,   0.9,   2.1,   0.0,  0.82, 
 04/02/03, 12:00,  -2.1,  98,   0.3,   1.0,   2.2,   0.0,  0.46, 
 04/02/03, 13:00,  -2.4,  99,   0.3,   1.0,   2.2,   0.5,  0.26, 
 04/02/03, 14:00,  -1.5,  91,   0.3,   1.0,   2.2,   0.0,  0.67, 
 04/02/03, 15:00,  -1.6,  95,   0.3,   1.0,   2.2,   0.0,  0.65, 
 04/02/03, 16:00,  -2.6,  94,   0.3,   1.0,   2.2,   0.5,  0.14, 
 04/02/03, 17:00,  -3.6,  97,   0.3,   1.0,   2.2,   0.5,  0.04, 
 04/02/03, 18:00,  -4.3,  96,   0.3,   1.0,   2.2,   1.0,  0.00, 
 04/02/03, 19:00,  -5.1,  94,   0.3,   1.0,   2.2,   1.0,  0.00, 
 04/02/03, 20:00,  -5.4,  96,   0.3,   0.9,   2.1,   2.5,  0.00, 
 04/02/03, 21:00,  -5.7,  95,   0.3,   0.9,   2.1,   3.5,  0.00, 
 04/02/03, 22:00,  -6.3,  95,   0.3,   1.0,   2.2,   2.0,  0.00, 
 04/02/03, 23:00,  -7.2,  91,   0.3,   1.0,   2.2,   0.5,  0.00, 
 04/02/04, 00:00,  -7.5,  89,   0.3,   0.9,   2.0,   0.5,  0.00, 
 04/02/04, 01:00,  -7.6,  94,   0.3,   1.0,   2.1,   0.0,  0.00, 
 04/02/04, 02:00,  -7.9,  90,   0.3,   1.0,   2.2,   0.0,  0.00, 
 04/02/04, 03:00,  -8.2,  91,   0.3,   1.0,   2.1,   0.0,  0.00, 
 04/02/04, 04:00,  -8.4,  93,   0.3,   1.0,   2.1,   0.5,  0.00, 
 04/02/04, 05:00,  -8.3,  90,   0.4,   0.9,   2.0,   0.5,  0.00, 
 04/02/04, 06:00,  -8.3,  92,   0.3,   0.9,   2.0,   1.0,  0.00, 
 04/02/04, 07:00,  -8.2,  94,   0.3,   1.0,   2.1,   0.5,  0.00, 
 04/02/04, 08:00,  -8.1,  94,   0.3,   0.9,   2.0,   0.0,  0.00, 
 04/02/04, 09:00,  -7.8,  95,   0.3,   0.9,   2.0,   0.5,  0.16, 
 04/02/04, 10:00,  -5.4,  99,   0.3,   0.9,   2.0,   0.5,  0.54, 
 04/02/04, 11:00,  -5.2,  99,   0.3,   1.0,   2.1,   0.5,  1.17, 
 04/02/04, 12:00,  -4.4,  99,   0.4,   1.0,   2.1,   0.0,  0.98, 
 04/02/04, 13:00,  -4.9,  99,   0.4,   1.0,   2.1,   0.0,  0.65, 
 04/02/04, 14:00,  -5.2,  94,   0.4,   1.0,   2.1,   0.0,  0.51, 
 04/02/04, 15:00,  -5.8,  89,   0.4,   1.0,   2.1,   0.0,  0.23, 
 04/02/04, 16:00,  -6.2,  92,   0.4,   1.0,   2.1,   0.5,  0.16, 
 04/02/04, 17:00,  -6.4,  95,   0.4,   1.0,   2.1,   0.5,  0.00, 
 04/02/04, 18:00,  -6.8,  91,   0.4,   1.0,   2.1,   0.0,  0.00, 
 04/02/04, 19:00,  -6.9,  95,   0.4,   0.9,   2.0,   1.0,  0.00, 
 04/02/04, 20:00,  -7.1,  96,   0.4,   1.0,   2.1,   0.5,  0.00, 
 04/02/04, 21:00,  -7.3,  95,   0.4,   1.0,   2.1,   0.5,  0.00, 
 04/02/04, 22:00,  -7.5,  95,   0.4,   1.0,   2.1,   0.5,  0.00, 
 04/02/04, 23:00,  -7.6,  95,   0.4,   1.0,   2.1,   0.0,  0.00, 
 04/02/05, 00:00,  -7.6,  95,   0.4,   0.9,   2.0,   0.5,  0.00, 
 04/02/05, 01:00,  -8.0,  94,   0.4,   1.0,   2.0,   0.0,  0.00, 
 04/02/05, 02:00,  -8.5,  93,   0.4,   0.9,   2.0,   0.0,  0.00, 
 04/02/05, 03:00,  -8.6,  93,   0.4,   0.9,   2.0,   0.0,  0.00, 
 04/02/05, 04:00,  -9.0,  92,   0.4,   0.9,   2.1,   0.0,  0.00, 
 04/02/05, 05:00,  -9.1,  92,   0.4,   0.9,   2.0,   0.0,  0.00, 
 04/02/05, 06:00,  -9.4,  94,   0.4,   0.9,   2.0,   0.5,  0.00, 
 04/02/05, 07:00, -10.4,  89,   0.4,   0.9,   2.0,   0.0,  0.00, 
 04/02/05, 08:00, -10.4,  88,   0.4,   0.9,   2.0,   0.0,  0.06, 
 04/02/05, 09:00,  -8.4,  86,   0.4,   0.9,   2.0,   0.0,  0.35, 
 04/02/05, 10:00,  -7.3,  88,   0.4,   1.0,   2.1,   0.0,  0.63, 
 04/02/05, 11:00,  -6.6,  87,   0.4,   1.0,   2.1,   0.0,  0.51, 
 04/02/05, 12:00,  -6.4,  86,   0.4,   1.0,   2.1,   0.0,  0.66, 
 04/02/05, 13:00,  -6.1,  89,   0.4,   1.0,   2.1,   0.5,  0.55, 
 04/02/05, 14:00,  -6.5,  92,   0.5,   1.0,   2.1,   0.5,  0.30, 
 04/02/05, 15:00,  -6.5,  96,   0.5,   1.0,   2.1,   1.0,  0.17, 
 04/02/05, 16:00,  -7.1,  96,   0.5,   1.0,   2.1,   1.5,  0.10, 
 04/02/05, 17:00,  -7.4,  95,   0.5,   1.0,   2.1,   1.0,  0.08, 
 04/02/05, 18:00,  -7.9,  93,   0.5,   1.0,   2.1,   0.5,  0.00, 
 04/02/05, 19:00,  -7.8,  94,   0.4,   1.0,   2.1,   1.5,  0.00, 
 04/02/05, 20:00,  -8.9,  91,   0.4,   1.0,   2.1,   1.0,  0.00, 
 04/02/05, 21:00,  -9.3,  90,   0.4,   1.0,   2.1,   0.0,  0.00, 
 04/02/05, 22:00,  -9.6,  90,   0.4,   1.0,   2.1,   0.0,  0.00, 
 04/02/05, 23:00,  -9.5,  93,   0.4,   1.0,   2.1,   0.5,  0.00, 
 04/02/06, 00:00,  -9.4,  93,   0.4,   1.0,   2.1,   0.5,  0.00, 
 04/02/06, 01:00,  -9.5,  92,   0.4,   1.0,   2.1,   0.5,  0.00, 
 04/02/06, 02:00,  -9.6,  92,   0.4,   1.0,   2.1,   0.5,  0.00, 
 04/02/06, 03:00,  -9.5,  93,   0.4,   1.0,   2.1,   0.5,  0.00, 
 04/02/06, 04:00,  -9.5,  92,   0.4,   1.0,   2.1,   1.0,  0.00, 
 04/02/06, 05:00, -10.1,  90,   0.4,   1.0,   2.1,   0.0,  0.00, 
 04/02/06, 06:00,  -9.6,  89,   0.4,   0.9,   2.0,   0.0,  0.00, 
 04/02/06, 07:00,  -9.6,  89,   0.4,   1.0,   2.0,   0.5,  0.00, 
 04/02/06, 08:00,  -9.2,  92,   0.4,   0.9,   2.0,   0.0,  0.04, 
 04/02/06, 09:00,  -8.2,  84,   0.4,   0.9,   2.0,   0.0,  0.42, 
 04/02/06, 10:00,  -7.2,  90,   0.4,   1.0,   2.1,   0.0,  0.76, 
 04/02/06, 11:00,  -4.0,  99,   0.4,   1.0,   2.1,   0.0,  0.71, 
 04/02/06, 12:00,  -4.4,  99,   0.4,   1.0,   2.1,   0.0,  0.92, 
 04/02/06, 13:00,  -4.6,  99,   0.4,   1.0,   2.1,   0.0,  0.60, 
 04/02/06, 14:00,  -5.6,  99,   0.4,   1.0,   2.1,   0.5,  0.42, 
 04/02/06, 15:00,  -6.2,  99,   0.4,   1.0,   2.1,   0.5,  0.25, 
 04/02/06, 16:00,  -6.1,  99,   0.4,   1.0,   2.1,   0.0,  0.18, 
 04/02/06, 17:00,  -6.9,  99,   0.4,   1.0,   2.1,   0.0,  0.06, 
 04/02/06, 18:00,  -7.6,  96,   0.4,   1.0,   2.1,   0.0,  0.00, 
 04/02/06, 19:00,  -7.9,  96,   0.4,   1.0,   2.1,   0.0,  0.00, 
 04/02/06, 20:00,  -8.1,  97,   0.4,   1.0,   2.1,   0.5,  0.00, 
 04/02/06, 21:00,  -8.1,  97,   0.4,   1.0,   2.1,   0.5,  0.00, 
 04/02/06, 22:00,  -8.3,  97,   0.4,   1.0,   2.0,   1.0,  0.00, 
 04/02/06, 23:00,  -8.6,  97,   0.4,   1.0,   2.0,   0.0,  0.00, 
 04/02/07, 00:00,  -8.8,  96,   0.4,   0.9,   2.0,   0.5,  0.00, 
 04/02/07, 01:00,  -9.4,  96,   0.4,   1.0,   2.0,   0.0,  0.00, 
 04/02/07, 02:00,  -9.6,  95,   0.4,   0.9,   2.0,   0.5,  0.00, 
 04/02/07, 03:00,  -9.9,  94,   0.4,   0.9,   2.0,   0.5,  0.00, 
 04/02/07, 04:00, -10.0,  94,   0.4,   0.9,   2.0,   0.5,  0.00, 
 04/02/07, 05:00,  -9.9,  95,   0.3,   0.9,   2.0,   0.5,  0.00, 
 04/02/07, 06:00, -10.0,  94,   0.4,   0.9,   2.0,   2.0,  0.00, 
 04/02/07, 07:00, -10.0,  95,   0.3,   0.9,   2.0,   0.5,  0.00, 
 04/02/07, 08:00,  -9.6,  99,   0.3,   0.9,   2.0,   0.5,  0.02, 
 04/02/07, 09:00,  -8.7,  99,   0.3,   0.9,   2.0,   0.5,  0.16, 
 04/02/07, 10:00,  -6.9,  99,   0.4,   0.9,   2.0,   0.0,  0.47, 
 04/02/07, 11:00,  -7.1,  99,   0.4,   1.0,   2.0,   0.0,  0.38, 
 04/02/07, 12:00,  -7.1,  99,   0.3,   0.9,   2.0,   0.5,  0.28, 
 04/02/07, 13:00,  -6.1,  99,   0.3,   0.9,   2.0,   0.5,  0.33, 
 04/02/07, 14:00,  -6.7,  99,   0.4,   1.0,   2.0,   0.0,  0.27, 
 04/02/07, 15:00,  -6.8,  99,   0.4,   0.9,   2.0,   0.5,  0.21, 
 04/02/07, 16:00,  -7.5,  99,   0.3,   0.9,   2.0,   0.5,  0.12, 
 04/02/07, 17:00,  -7.9,  99,   0.3,   0.9,   2.0,   1.0,  0.07, 
 04/02/07, 18:00,  -8.2,  96,   0.3,   0.9,   2.0,   0.0,  0.00, 
 04/02/07, 19:00,  -8.0,  98,   0.3,   0.9,   2.0,   1.0,  0.00, 
 04/02/07, 20:00,  -8.3,  98,   0.3,   0.9,   2.0,   0.5,  0.00, 
 04/02/07, 21:00,  -8.3,  97,   0.3,   0.9,   2.0,   0.5,  0.00, 
 04/02/07, 22:00,  -8.5,  96,   0.3,   0.9,   2.0,   0.0,  0.00, 
 04/02/07, 23:00,  -8.6,  97,   0.4,   1.0,   2.0,   0.0,  0.00, 
 04/02/08, 00:00,  -9.0,  96,   0.4,   0.9,   2.0,   0.0,  0.00, 
 04/02/08, 01:00,  -8.8,  93,   0.3,   0.9,   2.0,   0.0,  0.00, 
 04/02/08, 02:00,  -9.0,  96,   0.3,   0.9,   2.0,   0.5,  0.00, 
 04/02/08, 03:00,  -9.7,  99,   0.3,   0.9,   2.0,   0.0,  0.00, 
 04/02/08, 04:00,  -9.6,  97,   0.3,   0.9,   2.0,   0.0,  0.00, 
 04/02/08, 05:00,  -9.4,  95,   0.3,   0.9,   2.0,   0.0,  0.00, 
 04/02/08, 06:00, -10.0,  94,   0.3,   0.9,   2.0,   0.5,  0.00, 
 04/02/08, 07:00, -10.6,  91,   0.3,   0.9,   2.0,   0.0,  0.00, 
 04/02/08, 08:00,  -9.8,  95,   0.3,   0.9,   2.0,   0.0,  0.06, 
 04/02/08, 09:00,  -8.2,  99,   0.3,   0.9,   2.0,   0.0,  0.29, 
 04/02/08, 10:00,  -6.3,  99,   0.3,   0.9,   2.0,   0.0,  0.39, 
 04/02/08, 11:00,  -4.1,  99,   0.3,   0.9,   2.0,   0.0,  0.63, 
 04/02/08, 12:00,  -5.0,  99,   0.4,   0.9,   2.0,   0.0,  0.58, 
 04/02/08, 13:00,  -4.4,  99,   0.4,   0.9,   2.0,   0.0,  0.70, 
 04/02/08, 14:00,  -4.6,  99,   0.4,   0.9,   2.0,   0.0,  0.56, 
 04/02/08, 15:00,  -5.1,  95,   0.3,   0.9,   2.0,   0.0,  0.27, 
 04/02/08, 16:00,  -5.3,  96,   0.4,   1.0,   2.0,   0.0,  0.16, 
 04/02/08, 17:00,  -5.7,  95,   0.3,   0.9,   2.0,   0.0,  0.04, 
 04/02/08, 18:00,  -6.1,  97,   0.3,   0.9,   2.0,   0.5,  0.00, 
 04/02/08, 19:00,  -6.2,  97,   0.3,   0.9,   2.0,   0.5,  0.00, 
 04/02/08, 20:00,  -6.2,  98,   0.3,   0.9,   2.0,   0.5,  0.00, 
 04/02/08, 21:00,  -6.5,  98,   0.3,   0.9,   2.0,   0.5,  0.00, 
 04/02/08, 22:00,  -6.6,  98,   0.4,   0.9,   2.0,   0.0,  0.00, 
 04/02/08, 23:00,  -6.6,  98,   0.3,   0.9,   2.0,   0.5,  0.00, 
 04/02/09, 00:00,  -7.0,  98,   0.3,   0.9,   2.0,   0.5,  0.00, 
 04/02/09, 01:00,  -6.8,  97,   0.3,   0.9,   2.0,   0.0,  0.00, 
 04/02/09, 02:00,  -6.9,  98,   0.3,   0.9,   2.0,   0.5,  0.00, 
 04/02/09, 03:00,  -6.8,  96,   0.3,   0.9,   2.0,   0.0,  0.00, 
 04/02/09, 04:00,  -6.9,  97,   0.3,   0.9,   2.0,   0.5,  0.00, 
 04/02/09, 05:00,  -6.7,  97,   0.3,   0.9,   2.0,   0.0,  0.00, 
 04/02/09, 06:00,  -6.6,  97,   0.3,   0.9,   2.0,   0.5,  0.00, 
 04/02/09, 07:00,  -6.5,  97,   0.3,   0.9,   2.0,   0.0,  0.00, 
 04/02/09, 08:00,  -6.4,  99,   0.3,   0.9,   2.0,   0.5,  0.04, 
 04/02/09, 09:00,  -4.6,  99,   0.3,   0.9,   2.0,   0.0,  0.18, 
 04/02/09, 10:00,  -4.6,  99,   0.3,   0.9,   2.0,   0.0,  0.22, 
 04/02/09, 11:00,  -2.1,  83,   0.3,   0.9,   2.0,   2.0,  0.27, 
 04/02/09, 12:00,  -1.5,  85,   0.3,   0.9,   2.0,   0.0,  0.50, 
 04/02/09, 13:00,  -1.2,  78,   0.4,   0.9,   2.0,   0.0,  0.46, 
 04/02/09, 14:00,  -2.2,  80,   0.4,   0.9,   2.0,   0.0,  0.35, 
 04/02/09, 15:00,  -3.3,  81,   0.4,   0.9,   2.0,   0.0,  0.25, 
 04/02/09, 16:00,  -4.3,  83,   0.4,   0.9,   2.0,   0.0,  0.21, 
 04/02/09, 17:00,  -5.9,  90,   0.4,   0.9,   2.0,   0.0,  0.08, 
 04/02/09, 18:00,  -7.0,  90,   0.4,   0.9,   2.0,   0.0,  0.00, 
 04/02/09, 19:00,  -7.5,  93,   0.4,   0.9,   2.0,   0.0,  0.00, 
 04/02/09, 20:00,  -8.0,  93,   0.4,   0.9,   2.0,   0.0,  0.00, 
 04/02/09, 21:00,  -8.4,  91,   0.4,   0.9,   2.0,   0.0,  0.00, 
 04/02/09, 22:00,  -8.9,  90,   0.4,   0.9,   2.0,   0.0,  0.00, 
 04/02/09, 23:00,  -8.7,  92,   0.4,   0.9,   2.0,   0.0,  0.00, 
 04/02/10, 00:00,  -9.4,  90,   0.4,   0.9,   2.0,   0.0,  0.00, 
 04/02/10, 01:00, -12.0,  88,   0.3,   0.9,   2.0,   0.0,  0.00, 
 04/02/10, 02:00, -12.5,  88,   0.3,   0.9,   2.0,   0.0,  0.00, 
 04/02/10, 03:00, -13.0,  89,   0.3,   0.9,   2.0,   0.0,  0.00, 
 04/02/10, 04:00, -12.3,  90,   0.3,   0.9,   2.0,   0.0,  0.00, 
 04/02/10, 05:00, -13.2,  86,   0.3,   0.9,   2.0,   0.0,  0.00, 
 04/02/10, 06:00, -13.4,  88,   0.3,   0.9,   2.0,   0.0,  0.00, 
 04/02/10, 07:00, -13.3,  84,   0.2,   0.9,   2.0,   0.0,  0.00, 
 04/02/10, 08:00, -12.1,  99,   0.2,   0.9,   2.0,   0.0,  0.08, 
 04/02/10, 09:00,  -9.4,  91,   0.2,   0.9,   2.0,   0.0,  0.31, 
 04/02/10, 10:00,  -4.9,  97,   0.3,   0.9,   2.0,   0.0,  0.44, 
 04/02/10, 11:00,  -3.3,  83,   0.3,   0.9,   2.0,   0.0,  0.62, 
 04/02/10, 12:00,  -3.5,  85,   0.3,   1.0,   2.0,   0.0,  0.83, 
 04/02/10, 13:00,  -1.9,  73,   0.3,   1.0,   2.1,   0.0,  1.02, 
 04/02/10, 14:00,  -2.1,  64,   0.3,   1.0,   2.1,   0.0,  1.24, 
 04/02/10, 15:00,  -3.3,  49,   0.3,   1.0,   2.1,   0.0,  1.36, 
 04/02/10, 16:00,  -3.7,  50,   0.3,   1.0,   2.1,   0.0,  1.47, 
 04/02/10, 17:00,  -4.6,  54,   0.3,   1.0,   2.1,   0.0,  0.70, 
 04/02/10, 18:00,  -6.1,  69,   0.3,   1.0,   2.0,   0.0,  0.00, 
 04/02/10, 19:00,  -6.6,  64,   0.3,   0.9,   2.0,   0.0,  0.00, 
 04/02/10, 20:00,  -5.9,  64,   0.3,   0.9,   2.0,   0.0,  0.00, 
 04/02/10, 21:00,  -5.4,  69,   0.3,   0.9,   2.0,   0.0,  0.00, 
 04/02/10, 22:00,  -6.7,  83,   0.3,   0.8,   2.0,   0.0,  0.00, 
 04/02/10, 23:00,  -4.9,  86,   0.3,   0.9,   2.0,   0.0,  0.00, 
 04/02/11, 00:00,  -5.1,  83,   0.3,   0.8,   2.0,   0.0,  0.00, 
 04/02/11, 01:00,  -5.3,  80,   0.3,   0.8,   2.0,   0.0,  0.00, 
 04/02/11, 02:00,  -5.3,  82,   0.3,   0.8,   2.0,   0.0,  0.00, 
 04/02/11, 03:00,  -5.3,  81,   0.3,   0.8,   2.0,   0.0,  0.00, 
 04/02/11, 04:00,  -6.0,  81,   0.3,   0.8,   2.0,   0.0,  0.00, 
 04/02/11, 05:00,  -5.8,  80,   0.3,   0.8,   2.0,   0.0,  0.00, 
 04/02/11, 06:00,  -6.6,  84,   0.3,   0.8,   2.0,   0.0,  0.00, 
 04/02/11, 07:00,  -6.7,  81,   0.3,   0.8,   2.0,   0.0,  0.00, 
 04/02/11, 08:00,  -6.9,  84,   0.3,   0.8,   2.0,   0.0,  0.23, 
 04/02/11, 09:00,  -4.1,  68,   0.3,   0.8,   2.0,   0.0,  0.91, 
 04/02/11, 10:00,  -2.9,  59,   0.3,   0.8,   2.0,   0.0,  1.26, 
 04/02/11, 11:00,  -1.5,  59,   0.3,   0.8,   2.0,   0.0,  1.78, 
 04/02/11, 12:00,  -1.8,  58,   0.3,   0.8,   2.0,   0.0,  2.26, 
 04/02/11, 13:00,  -0.7,  57,   0.3,   0.9,   2.1,   0.0,  2.28, 
 04/02/11, 14:00,   0.0,  54,   0.3,   0.9,   2.1,   0.0,  1.46, 
 04/02/11, 15:00,  -1.7,  70,   0.3,   0.8,   2.0,   0.0,  0.45, 
 04/02/11, 16:00,  -2.4,  78,   0.3,   0.8,   2.0,   0.0,  0.29, 
 04/02/11, 17:00,  -3.2,  87,   0.3,   0.8,   2.0,   0.0,  0.15, 
 04/02/11, 18:00,  -3.8,  97,   0.3,   0.8,   2.0,   0.0,  0.01, 
 04/02/11, 19:00,  -3.9,  92,   0.3,   0.8,   2.0,   0.0,  0.00, 
 04/02/11, 20:00,  -4.1,  98,   0.3,   0.8,   2.0,   0.5,  0.00, 
 04/02/11, 21:00,  -4.1,  97,   0.3,   0.8,   2.0,   1.0,  0.00, 
 04/02/11, 22:00,  -4.2,  96,   0.3,   0.8,   2.0,   0.0,  0.00, 
 04/02/11, 23:00,  -4.7,  92,   0.3,   0.8,   2.0,   0.0,  0.00, 
 04/02/12, 00:00,  -4.7,  93,   0.3,   0.8,   2.0,   0.0,  0.00, 
 04/02/12, 01:00,  -4.7,  94,   0.3,   0.8,   2.0,   0.0,  0.00, 
 04/02/12, 02:00,  -4.6,  92,   0.3,   0.8,   2.0,   0.5,  0.00, 
 04/02/12, 03:00,  -4.6,  92,   0.2,   0.8,   2.0,   0.0,  0.00, 
 04/02/12, 04:00,  -4.7,  88,   0.3,   0.8,   2.0,   0.0,  0.00, 
 04/02/12, 05:00,  -4.7,  90,   0.3,   0.8,   2.0,   0.0,  0.00, 
 04/02/12, 06:00,  -4.8,  96,   0.3,   0.8,   2.0,   0.5,  0.00, 
 04/02/12, 07:00,  -5.0,  94,   0.3,   0.8,   2.0,   1.5,  0.00, 
 04/02/12, 08:00,  -4.8,  86,   0.3,   0.8,   2.0,   0.0,  0.11, 
 04/02/12, 09:00,  -4.2,  81,   0.2,   0.8,   2.0,   0.0,  0.25, 
 04/02/12, 10:00,  -3.9,  85,   0.3,   0.8,   2.0,   0.0,  0.45, 
 04/02/12, 11:00,  -2.9,  79,   0.3,   0.9,   2.1,   0.0,  1.77, 
 04/02/12, 12:00,  -2.1,  76,   0.3,   0.9,   2.1,   0.0,  2.44, 
 04/02/12, 13:00,  -1.8,  82,   0.4,   0.9,   2.1,   0.0,  2.00, 
 04/02/12, 14:00,  -2.2,  70,   0.4,   0.9,   2.1,   0.0,  1.62, 
 04/02/12, 15:00,  -3.0,  92,   0.4,   0.9,   2.1,   0.0,  0.05, 
 04/02/12, 16:00,  -3.1,  99,   0.4,   0.9,   2.1,   0.0,  0.01, 
 04/02/12, 17:00,  -3.6,  90,   0.4,   0.9,   2.1,   0.0,  0.00, 
 04/02/12, 18:00,  -4.0,  88,   0.4,   0.9,   2.1,   0.0,  0.00, 
 04/02/12, 19:00,  -4.2,  89,   0.3,   0.8,   2.1,   0.0,  0.00, 
 04/02/12, 20:00,  -4.8,  80,   0.3,   0.8,   2.0,   0.0,  0.00, 
 04/02/12, 21:00,  -5.2,  80,   0.3,   0.8,   2.0,   0.0,  0.00, 
 04/02/12, 22:00,  -5.0,  75,   0.3,   0.8,   2.0,   0.0,  0.00, 
 04/02/12, 23:00,  -5.2,  78,   0.3,   0.8,   2.0,   0.0,  0.00, 
 04/02/12, 00:00,  -5.0,  84,   0.3,   0.8,   2.0,   0.0,  0.00, 
 04/02/13, 01:00,  -5.0,  90,   0.3,   0.8,   2.0,   0.0,  0.00, 
 04/02/13, 02:00,  -5.3,  90,   0.3,   0.8,   2.0,   0.0,  0.00, 
 04/02/13, 03:00,  -6.8,  90,   0.3,   0.8,   2.0,   0.0,  0.00, 
 04/02/13, 04:00,  -8.0,  94,   0.3,   0.8,   2.0,   0.0,  0.00, 
 04/02/13, 05:00,  -9.0,  91,   0.3,   0.8,   2.0,   0.0,  0.00, 
 04/02/13, 06:00, -10.0,  82,   0.3,   0.8,   2.0,   0.0,  0.00, 
 04/02/13, 07:00,  -9.0,  80,   0.3,   0.8,   2.0,   0.0,  0.00, 
 04/02/13, 08:00,  -8.2,  71,   0.3,   0.8,   2.0,   0.0,  1.50, 
 04/02/13, 09:00,  -4.0,  55,   0.3,   0.8,   2.0,   0.0,  1.50, 
 04/02/13, 10:00,  -2.0,  48,   0.3,   0.8,   2.0,   0.0,  1.50, 
 04/02/13, 11:00,  -1.2,  70,   0.3,   0.8,   2.0,   0.0,  1.50, 
 04/02/13, 12:00,  -0.8,  65,   0.4,   0.9,   2.1,   0.0,  2.71, 
 04/02/13, 13:00,  -1.0,  54,   0.4,   0.9,   2.1,   0.0,  2.59, 
 04/02/13, 14:00,  -0.4,  39,   0.4,   0.9,   2.1,   0.5,  2.07, 
 04/02/13, 15:00,   0.0,  46,   0.4,   0.9,   2.1,   0.0,  1.47, 
 04/02/13, 16:00,   1.2,  41,   0.3,   0.9,   2.1,   0.0,  1.26, 
 04/02/13, 17:00,   0.5,  34,   0.4,   0.9,   2.1,   0.0,  0.51, 
 04/02/13, 18:00,  -1.2,  37,   0.4,   0.9,   2.1,   0.0,  0.02, 
 04/02/13, 19:00,  -1.8,  40,   0.3,   0.9,   2.1,   0.0,  0.00, 
 04/02/13, 20:00,  -2.2,  59,   0.3,   0.9,   2.1,   0.0,  0.00, 
 04/02/13, 21:00,  -3.1,  66,   0.3,   0.9,   2.1,   0.0,  0.00, 
 04/02/13, 22:00,  -3.8,  75,   0.3,   0.9,   2.1,   0.0,  0.00, 
 04/02/13, 23:00,  -2.6,  76,   0.3,   0.9,   2.1,   0.0,  0.00, 
 04/02/14, 00:00,  -3.2,  90,   0.3,   0.9,   2.1,   0.0,  0.00, 
 04/02/14, 01:00,  -3.0,  92,   0.3,   0.9,   2.1,   0.0,  0.00, 
 04/02/14, 02:00,  -1.8,  83,   0.3,   0.9,   2.0,   0.0,  0.00, 
 04/02/14, 03:00,  -2.6,  90,   0.3,   0.9,   2.1,   0.0,  0.00, 
 04/02/14, 04:00,  -2.3,  87,   0.3,   0.9,   2.1,   0.0,  0.00, 
 04/02/14, 05:00,  -2.9,  79,   0.3,   0.9,   2.0,   0.0,  0.00, 
 04/02/14, 06:00,  -3.3,  79,   0.3,   0.9,   2.0,   0.0,  0.00, 
 04/02/14, 07:00,  -3.3,  76,   0.3,   0.8,   2.0,   0.0,  0.00, 
 04/02/14, 08:00,  -2.4,  70,   0.3,   0.9,   2.0,   0.0,  0.29, 
 04/02/14, 09:00,  -1.1,  66,   0.3,   0.9,   2.0,   0.0,  0.99, 
 04/02/14, 10:00,   0.7,  62,   0.3,   0.9,   2.0,   0.0,  1.62, 
 04/02/14, 11:00,   1.5,  57,   0.3,   0.9,   2.0,   0.0,  2.08, 
 04/02/14, 12:00,   2.9,  49,   0.3,   0.9,   2.0,   0.0,  2.40, 
 04/02/14, 13:00,   3.9,  44,   0.4,   0.9,   2.0,   0.0,  2.44, 
 04/02/14, 14:00,   3.1,  46,   0.4,   0.9,   2.0,   0.0,  2.04, 
 04/02/14, 15:00,   2.4,  54,   0.4,   0.9,   2.0,   0.0,  0.89, 
 04/02/14, 16:00,   1.7,  64,   0.4,   0.9,   2.0,   0.0,  0.35, 
 04/02/14, 17:00,  -0.5,  99,   0.4,   0.9,   2.0,   0.5,  0.03, 
 04/02/14, 18:00,  -0.2,  99,   0.3,   0.9,   2.0,   2.0,  0.00, 
 04/02/14, 19:00,  -0.7,  99,   0.3,   0.9,   2.0,   1.5,  0.00, 
 04/02/14, 20:00,  -2.0,  99,   0.3,   0.9,   2.0,   0.5,  0.00, 
 04/02/14, 21:00,  -2.6,  99,   0.3,   0.9,   2.0,   0.0,  0.00, 
 04/02/14, 22:00,  -3.8,  99,   0.3,   0.9,   2.0,   2.0,  0.00, 
 04/02/14, 23:00,  -5.1,  96,   0.3,   0.9,   2.0,   0.0,  0.00, 
 04/02/15, 00:00,  -5.2,  98,   0.3,   0.9,   2.0,   0.5,  0.00, 
 04/02/15, 01:00,  -5.3,  97,   0.3,   0.9,   2.0,   2.5,  0.00, 
 04/02/15, 02:00,  -5.7,  97,   0.3,   0.9,   2.0,   0.5,  0.00, 
 04/02/15, 03:00,  -5.6,  98,   0.4,   0.9,   2.0,   3.0,  0.00, 
 04/02/15, 04:00,  -5.7,  97,   0.3,   0.9,   2.0,   1.0,  0.00, 
 04/02/15, 05:00,  -5.4,  98,   0.3,   0.9,   2.0,   2.0,  0.00, 
 04/02/15, 06:00,  -5.7,  98,   0.4,   0.9,   2.0,   3.0,  0.00, 
 04/02/15, 07:00,  -5.5,  98,   0.4,   0.9,   2.0,   6.0,  0.00, 
 04/02/15, 08:00,  -5.3,  98,   0.4,   0.9,   2.0,   3.5,  0.00, 
 04/02/15, 09:00,  -5.3,  98,   0.4,   0.9,   2.0,   1.0,  0.09, 
 04/02/15, 10:00,  -4.9,  98,   0.4,   0.9,   2.0,   1.0,  0.23, 
 04/02/15, 11:00,  -5.4,  98,   0.4,   0.9,   2.0,   0.5,  0.25, 
 04/02/15, 12:00,  -5.1,  97,   0.4,   0.9,   2.0,   1.0,  0.30, 
 04/02/15, 13:00,  -4.8,  99,   0.4,   0.9,   2.0,   0.5,  0.34, 
 04/02/15, 14:00,  -4.6,  97,   0.4,   0.9,   2.0,   0.5,  0.35, 
 04/02/15, 15:00,  -4.5,  95,   0.4,   0.9,   2.0,   0.0,  0.58, 
 04/02/15, 16:00,  -4.9,  95,   0.4,   0.9,   2.0,   0.5,  0.20, 
 04/02/15, 17:00,  -5.3,  96,   0.4,   0.9,   2.0,   0.0,  0.11, 
 04/02/15, 18:00,  -5.7,  96,   0.4,   0.9,   2.0,   0.5,  0.04, 
 04/02/15, 19:00,  -5.8,  96,   0.4,   0.9,   2.0,   1.0,  0.00, 
 04/02/15, 20:00,  -5.8,  97,   0.4,   0.9,   2.0,   0.5,  0.00, 
 04/02/15, 21:00,  -6.1,  99,   0.3,   0.9,   2.0,   2.5,  0.00, 
 04/02/15, 22:00,  -7.8,  96,   0.4,   0.9,   2.0,   1.5,  0.00, 
 04/02/15, 23:00,  -8.4,  96,   0.3,   0.9,   2.0,   2.5,  0.00, 
 04/02/16, 00:00,  -9.3,  93,   0.4,   0.9,   2.0,   1.5,  0.00, 
 04/02/16, 01:00,  -9.0,  94,   0.3,   0.9,   2.0,   1.0,  0.00, 